Flag for Trinidad and Tobago Weather past 2 weeks in Port of Spain, Trinidad and Tobago

Now
79 °F

Passing clouds.


Feels Like: 82 °F
Forecast: 79 / 88 °F
Wind: No wind

Location: Piarco International Airport - Trinidad

Current Time: Jul 29, 2014 at 11:52:49 PM

Latest Report: Jul 29, 2014 at 11:00 PM


Visibility: N/A

Pressure: 30.01 "Hg

Humidity: 84%

Dew point: 73 °F

Location of Port of SpainLocation

Historic Weather in Port of Spain — Graph

°F

Port of Spain temperature yesterday

Maximum temperature yesterday: 91 °F (at 12:00 PM)
Minimum temperature yesterday: 77 °F (at 5:00 AM)
Average temperature yesterday: 84 °F

Past Weeks' High & Low Weather Summary

 TemperatureHumidityPressure
High91 °F (Jul 16, 1:00 PM)100% (Jul 16, 3:00 AM)30.07 "Hg (Jul 16, 3:00 AM)
Low73 °F (Jul 18, 2:00 PM)55% (Jul 16, 4:00 PM)29.86 "Hg (Jul 25, 3:00 PM)
Average82 °F80%29.97 "Hg
* Reported Jul 14 11:00 PM — Jul 29 11:00 PM, Port of Spain, Weather by CustomWeather, © 2014

Note: Actual official high and low records may vary slightly from our data, if they occured in-between our weather recording intervals... More about our weather records

Advertising

Port of Spain weather history for previous 24 hours

 ConditionsComfort  
Time TempWeatherWind HumidityBarometerVisibility
11:00 PM
Jul 29
79 °FPassing clouds.No wind84%30.01 "HgN/A
10:00 PM81 °FPassing clouds.No wind79%29.98 "HgN/A
9:00 PM81 °FSmoke.No wind84%29.95 "HgN/A
8:00 PM81 °FSmoke.No wind84%29.95 "HgN/A
7:00 PM82 °FPassing clouds.6 mph74%29.92 "HgN/A
6:00 PM86 °FPassing clouds.7 mph62%29.92 "HgN/A
5:00 PM90 °FPassing clouds.13 mph55%29.89 "HgN/A
4:00 PM88 °FPassing clouds.8 mph59%29.89 "HgN/A
3:00 PM88 °FScattered clouds.10 mph62%29.92 "HgN/A
2:00 PM88 °FScattered showers. Broken clouds.9 mph62%29.92 "HgN/A
1:00 PM90 °FPartly sunny.8 mph59%29.95 "HgN/A
12:00 PM91 °FScattered clouds.8 mph56%29.98 "HgN/A
11:00 AM90 °FScattered clouds.9 mph59%29.98 "HgN/A
10:00 AM88 °FScattered clouds.12 mph62%30.01 "HgN/A
9:00 AM88 °FScattered clouds.9 mph62%30.01 "HgN/A
8:00 AM84 °FPassing clouds.7 mph70%30.01 "HgN/A
7:00 AM81 °FPassing clouds.No wind74%29.98 "HgN/A
6:00 AM77 °FPassing clouds.No wind83%29.98 "HgN/A
5:00 AM77 °FPassing clouds.No wind79%29.98 "HgN/A
4:00 AM77 °FPassing clouds.No wind83%29.98 "HgN/A
3:00 AM77 °FPassing clouds.No wind79%29.98 "HgN/A
2:00 AM79 °FPassing clouds.No wind89%29.98 "HgN/A
1:00 AM77 °FPassing clouds.8 mph83%29.98 "HgN/A
12:00 AM77 °FPassing clouds.No wind83%30.01 "HgN/A
11:00 PM
Jul 28
79 °FPassing clouds.No wind79%30.01 "HgN/A
Weather by CustomWeather, © 2014

See weather overviewHow to use our weather pages